When you browse on this site, cookies collect data to enhance your experience and personalize the content and advertising you see.
Visit our Privacy Policy to learn more. By continuing to use the site, you agree to this use of cookies and data.
  • In United Kingdom
  • List of Countries
  • For 7 days
  • Water Temperature
  • Satellite Maps
  • Weather Map
  • Weather Widgets
  • user-avatar
    Login

    Hourly Weather Melbourne

    Today, 12 December, Wednesday

    Time Temperature Precipitation Wind Pressure Humidity
    00:00 +18°C° 0 mm 1 mps 758 mmHg 82%
    01:00 +18°C° 0 mm 1 mps 757 mmHg 84%
    02:00 +18°C° 0 mm 1 mps 757 mmHg 84%
    03:00 +18°C° 0 mm 1 mps 757 mmHg 84%
    04:00 +18°C° 0 mm 1 mps 756 mmHg 84%
    05:00 +19°C° 0 mm 2 mps 756 mmHg 80%
    06:00 +20°C° 0 mm 3 mps 756 mmHg 76%
    07:00 +22°C° 0 mm 4 mps 756 mmHg 72%
    08:00 +25°C° 0 mm 4 mps 756 mmHg 63%
    09:00 +28°C° 0 mm 4 mps 755 mmHg 54%
    10:00 +32°C° 0 mm 6 mps 755 mmHg 46%
    11:00 +33°C° 0 mm 5 mps 754 mmHg 40%
    12:00 +34°C° 0 mm 4 mps 754 mmHg 33%
    13:00 +35°C° 0 mm 3 mps 753 mmHg 27%
    14:00 +35°C° 0 mm 3 mps 752 mmHg 28%
    15:00 +35°C° 0 mm 3 mps 752 mmHg 28%
    16:00 +35°C° 0 mm 3 mps 751 mmHg 28%
    17:00 +34°C° 0 mm 3 mps 750 mmHg 34%
    18:00 +31°C° 0 mm 3 mps 750 mmHg 39%
    19:00 +29°C° 0 mm 3 mps 750 mmHg 44%
    20:00 +28°C° 0 mm 3 mps 750 mmHg 48%
    21:00 +27°C° 0 mm 2 mps 749 mmHg 51%
    22:00 +26°C° 0 mm 2 mps 749 mmHg 54%
    23:00 +25°C° 0.2 mm 2 mps 749 mmHg 62%

    Tomorrow, 13 December, Thursday

    Time Temperature Precipitation Wind Pressure Humidity
    00:00 +24°C° 0.2 mm 1 mps 748 mmHg 69%
    01:00 +23°C° 0.2 mm 1 mps 748 mmHg 77%
    02:00 +21°C° 0.2 mm 2 mps 747 mmHg 80%
    03:00 +21°C° 0.2 mm 2 mps 747 mmHg 84%
    04:00 +21°C° 0.2 mm 3 mps 746 mmHg 88%
    05:00 +21°C° 0.7 mm 3 mps 746 mmHg 88%
    06:00 +22°C° 0.7 mm 3 mps 746 mmHg 87%
    07:00 +22°C° 0.7 mm 3 mps 746 mmHg 87%
    08:00 +24°C° 1.4 mm 3 mps 746 mmHg 84%
    09:00 +25°C° 1.4 mm 2 mps 745 mmHg 82%
    10:00 +25°C° 1.4 mm 2 mps 745 mmHg 79%
    11:00 +24°C° 4.2 mm 2 mps 745 mmHg 84%
    12:00 +22°C° 4.2 mm 3 mps 745 mmHg 88%
    13:00 +20°C° 4.2 mm 3 mps 745 mmHg 93%
    14:00 +20°C° 1.8 mm 3 mps 745 mmHg 93%
    15:00 +20°C° 1.8 mm 3 mps 744 mmHg 93%
    16:00 +20°C° 1.8 mm 3 mps 744 mmHg 93%
    17:00 +20°C° 0.4 mm 3 mps 744 mmHg 94%
    18:00 +20°C° 0.4 mm 3 mps 744 mmHg 94%
    19:00 +19°C° 0.4 mm 2 mps 743 mmHg 95%
    20:00 +19°C° 1.9 mm 3 mps 744 mmHg 95%
    21:00 +19°C° 1.9 mm 3 mps 744 mmHg 96%
    22:00 +19°C° 1.9 mm 4 mps 744 mmHg 96%
    23:00 +19°C° 2.7 mm 3 mps 744 mmHg 96%

    Day after tomorrow, 14 December, Friday

    Time Temperature Precipitation Wind Pressure Humidity
    00:00 +18°C° 2.7 mm 2 mps 744 mmHg 96%
    01:00 +18°C° 2.7 mm 2 mps 745 mmHg 96%
    02:00 +17°C° 1.1 mm 2 mps 745 mmHg 95%
    03:00 +17°C° 1.1 mm 3 mps 746 mmHg 94%
    04:00 +15°C° 1.1 mm 4 mps 746 mmHg 93%
    05:00 +16°C° 1.1 mm 3 mps 747 mmHg 93%
    06:00 +16°C° 1.1 mm 3 mps 748 mmHg 92%
    07:00 +15°C° 1.1 mm 2 mps 749 mmHg 91%
    08:00 +15°C° 2.6 mm 2 mps 749 mmHg 90%
    09:00 +16°C° 2.6 mm 1 mps 749 mmHg 89%
    10:00 +16°C° 2.6 mm 1 mps 750 mmHg 88%
    11:00 +19°C° 1.1 mm 1 mps 750 mmHg 78%
    12:00 +21°C° 1.1 mm 1 mps 750 mmHg 68%
    13:00 +23°C° 1.1 mm 2 mps 750 mmHg 59%
    14:00 +23°C° 0 mm 2 mps 750 mmHg 59%
    15:00 +23°C° 0 mm 2 mps 750 mmHg 59%
    16:00 +24°C° 0 mm 3 mps 749 mmHg 58%
    17:00 +23°C° 0 mm 2 mps 750 mmHg 65%
    18:00 +20°C° 0 mm 2 mps 750 mmHg 72%
    19:00 +19°C° 0 mm 2 mps 750 mmHg 79%
    20:00 +19°C° 0 mm 1 mps 751 mmHg 83%
    21:00 +18°C° 0 mm 1 mps 751 mmHg 88%
    22:00 +16°C° 0 mm 1 mps 751 mmHg 92%
    23:00 +16°C° 0 mm 1 mps 751 mmHg 92%

    15 December, Saturday

    Time Temperature Precipitation Wind Pressure Humidity
    00:00 +16°C° 0 mm 1 mps 751 mmHg 91%
    01:00 +18°C° 0 mm 1 mps 751 mmHg 91%
    02:00 +18°C° 0.4 mm 1 mps 750 mmHg 93%
    03:00 +18°C° 0.4 mm 1 mps 750 mmHg 95%
    04:00 +18°C° 0.4 mm 1 mps 750 mmHg 97%
    05:00 +19°C° 0.5 mm 1 mps 750 mmHg 96%
    06:00 +20°C° 0.5 mm 1 mps 750 mmHg 95%
    07:00 +20°C° 0.5 mm 1 mps 750 mmHg 93%
    08:00 +21°C° 0 mm 2 mps 750 mmHg 79%
    09:00 +23°C° 0 mm 2 mps 750 mmHg 65%
    10:00 +25°C° 0 mm 3 mps 750 mmHg 51%
    11:00 +26°C° 0 mm 4 mps 750 mmHg 48%
    12:00 +27°C° 0 mm 4 mps 750 mmHg 45%
    13:00 +28°C° 0 mm 5 mps 750 mmHg 41%
    14:00 +27°C° 0.1 mm 4 mps 750 mmHg 43%
    15:00 +27°C° 0.1 mm 3 mps 749 mmHg 45%
    16:00 +27°C° 0.1 mm 3 mps 749 mmHg 47%
    17:00 +25°C° 0.1 mm 2 mps 749 mmHg 55%
    18:00 +24°C° 0.1 mm 2 mps 750 mmHg 63%
    19:00 +22°C° 0.1 mm 1 mps 750 mmHg 70%
    20:00 +21°C° 0.4 mm 1 mps 750 mmHg 75%
    21:00 +20°C° 0.4 mm 1 mps 751 mmHg 80%
    22:00 +19°C° 0.4 mm 1 mps 751 mmHg 85%
    23:00 +18°C° 0 mm 1 mps 751 mmHg 85%

    16 December, Sunday

    Time Temperature Precipitation Wind Pressure Humidity
    00:00 +18°C° 0 mm 1 mps 750 mmHg 86%
    01:00 +18°C° 0 mm 1 mps 750 mmHg 86%
    02:00 +18°C° 0.1 mm 1 mps 750 mmHg 87%
    03:00 +16°C° 0.1 mm 1 mps 750 mmHg 88%
    04:00 +16°C° 0.1 mm 1 mps 750 mmHg 89%
    05:00 +17°C° 0.2 mm 2 mps 751 mmHg 88%
    06:00 +18°C° 0.2 mm 2 mps 751 mmHg 86%
    07:00 +19°C° 0.2 mm 2 mps 751 mmHg 84%
    08:00 +20°C° 0.2 mm 2 mps 752 mmHg 78%
    09:00 +22°C° 0.2 mm 3 mps 752 mmHg 72%
    10:00 +25°C° 0.2 mm 3 mps 752 mmHg 65%
    11:00 +26°C° 0.2 mm 3 mps 752 mmHg 60%
    12:00 +27°C° 0.2 mm 3 mps 751 mmHg 55%
    13:00 +28°C° 0.2 mm 3 mps 751 mmHg 50%
    14:00 +28°C° 0.1 mm 3 mps 751 mmHg 51%
    15:00 +28°C° 0.1 mm 3 mps 751 mmHg 52%
    16:00 +28°C° 0.1 mm 3 mps 751 mmHg 53%
    17:00 +27°C° 0 mm 3 mps 752 mmHg 58%
    18:00 +25°C° 0 mm 2 mps 752 mmHg 64%
    19:00 +24°C° 0 mm 2 mps 753 mmHg 70%
    20:00 +23°C° 0 mm 2 mps 753 mmHg 75%
    21:00 +21°C° 0 mm 2 mps 754 mmHg 81%
    22:00 +20°C° 0 mm 1 mps 755 mmHg 86%
    23:00 +20°C° 0 mm 1 mps 755 mmHg 88%

    17 December, Monday

    Time Temperature Precipitation Wind Pressure Humidity
    00:00 +19°C° 0 mm 1 mps 755 mmHg 91%
    01:00 +18°C° 0 mm 1 mps 755 mmHg 93%
    02:00 +17°C° 0 mm 2 mps 755 mmHg 94%
    03:00 +17°C° 0 mm 2 mps 755 mmHg 95%
    04:00 +17°C° 0 mm 2 mps 755 mmHg 95%
    05:00 +17°C° 0 mm 2 mps 756 mmHg 92%
    06:00 +18°C° 0 mm 2 mps 756 mmHg 90%
    07:00 +19°C° 0 mm 2 mps 757 mmHg 87%
    08:00 +20°C° 0 mm 2 mps 757 mmHg 82%
    09:00 +21°C° 0 mm 2 mps 757 mmHg 78%
    10:00 +23°C° 0 mm 2 mps 757 mmHg 73%
    11:00 +22°C° 0 mm 3 mps 757 mmHg 70%
    12:00 +24°C° 0 mm 3 mps 757 mmHg 68%
    13:00 +25°C° 0 mm 4 mps 757 mmHg 65%
    14:00 +25°C° 0 mm 4 mps 757 mmHg 66%
    15:00 +23°C° 0 mm 4 mps 757 mmHg 67%
    16:00 +23°C° 0 mm 5 mps 757 mmHg 68%
    17:00 +22°C° 0 mm 4 mps 758 mmHg 71%
    18:00 +21°C° 0 mm 4 mps 758 mmHg 75%
    19:00 +20°C° 0 mm 4 mps 758 mmHg 78%
    20:00 +19°C° 0 mm 3 mps 759 mmHg 82%
    21:00 +17°C° 0 mm 3 mps 759 mmHg 86%
    22:00 +16°C° 0 mm 2 mps 760 mmHg 91%
    23:00 +16°C° 0 mm 2 mps 760 mmHg 92%
    Show more